Uribyol 2 - Orbit

View from above orbital plane
View from above orbital plane
View from above satellite
View from above satellite

Ground track
Ground track

The orbit data is extracted from the following two-line orbital elements,

1 22828U 93061F   13144.45043067  .00000197  00000-0  93263-4 0  3373
2 22828 098.6037 088.4971 0009032 328.2345 141.5079 14.30120567993686
Epoch (UTC): 24 May 2013 10:48:37
Eccentricity: 0.0009032
inclination: 98.6037°
perigee height: 785 km
apogee height: 798 km
right ascension of ascending node: 88.4971°
argument of perigee: 328.2345°
revolutions per day: 14.30120567
mean anomaly at epoch: 141.5079°
orbit number at epoch: 99368

The dashed part of the orbit path shows where the satellite is in the earth's shadow,  

Developed and maintained by Chris Peat, Heavens-Above GmbH. Please read the updated FAQ before sending e-mail. Imprint. DLR